Content
SEND FEEDBACK

Daily
Averages
Monthly
Summary
Canada

VANCOUVER, BRITISH COLUMBIA


Home > North America > Canada > British Columbia
Elevation: 7 feet     Latitude: 49 11N     Longitude: 123 10W

WEATHER
 
SELECT A DAY
Number of Records: 249,213;   Date Range: 5/15/97 - 4/23/14
 
SHARE

PRINT THIS DATA

[ ← Previous Day ]
WEATHER ALMANAC - FEBRUARY 20, 2013
[ Next Day → ]
[ °C ]   °F
Weather ElementAverageHighLow
Temperature39.8 °F44.6 °F (12:15 pm)32 °F (2:55 am)
Dewpoint37.3 °F39.2 °F (5:55 am)32 °F (1:35 am)
Humidity90.8 %100 % (12:55 am)81 % (12:15 pm)
Barometer29.99 in30.01 in (9:55 pm)29.97 in (1:15 pm)
Wind Speed3.6 mph9.2 mph (8:15 am)
Weather ElementAverage
Visibility9.3 mi
Wind DirectionESE (106.9 °)

Weather ElementTotal
Precipitation0.02 in
Heating Degree Days26.7 (Base 65)
Averaged from 68 records on February 20, 2013
WEATHER CONDITIONS BREAKOUT
WIND DIRECTION BREAKOUT
WEATHER BY HOUR - FEBRUARY 20, 2013
[ °C ]   °F
Local TimeTemperatureDewpointHumidityBarometerVisibilityWind DirectionWind SpeedGust SpeedPrecipitationEventsConditions
12:35 AM35.6 °F33.8 °F93 %29.98 in10.0 miCalmClear
12:55 AM33.8 °F33.8 °F100 %29.98 in10.0 miCalmClear
1:15 AM33.8 °F33.8 °F100 %29.98 in10.0 miNorthClear
1:35 AM33.8 °F32.0 °F93 %29.99 in10.0 miCalmClear
1:55 AM33.8 °F33.8 °F100 %29.99 in10.0 miCalmMostly Cloudy
2:15 AM33.8 °F33.8 °F100 %30.00 in10.0 miNorthMostly Cloudy
2:35 AM33.8 °F32.0 °F93 %30.00 in10.0 miCalmScattered Clouds
2:55 AM32.0 °F32.0 °F100 %30.00 in10.0 miCalmPartly Cloudy
3:15 AM33.8 °F32.0 °F93 %30.00 in10.0 miCalmClear
3:35 AM32.0 °F32.0 °F100 %30.00 in10.0 miCalmClear
3:55 AM35.6 °F35.6 °F100 %30.00 in10.0 miCalmScattered Clouds
4:15 AM35.6 °F35.6 °F100 %30.00 in10.0 miNorthPartly Cloudy
4:35 AM37.4 °F35.6 °F93 %30.00 in10.0 miCalmPartly Cloudy
5:15 AM39.2 °F37.4 °F93 %30.00 in10.0 miSouth (170°)3.5 mphOvercast
5:35 AM39.2 °F37.4 °F93 %30.00 in10.0 miSouth (180°)5.8 mphOvercast
5:55 AM39.2 °F39.2 °F100 %30.00 in10.0 miSouth (190°)4.6 mphOvercast
6:15 AM39.2 °F39.2 °F100 %30.00 in10.0 miSouth (170°)3.5 mphOvercast
6:35 AM39.2 °F39.2 °F100 %29.99 in10.0 miSouth (180°)5.8 mphOvercast
6:55 AM41.0 °F39.2 °F93 %29.99 in10.0 miSouth (180°)5.8 mphOvercast
7:15 AM41.0 °F39.2 °F93 %29.99 in10.0 miSSE (160°)4.6 mphOvercast
7:35 AM41.0 °F39.2 °F93 %29.98 in10.0 miSouth (170°)4.6 mphOvercast
7:55 AM41.0 °F37.4 °F87 %29.98 in10.0 miSouth (180°)6.9 mphOvercast
8:15 AM41.0 °F37.4 °F87 %29.98 in10.0 miSouth (180°)9.2 mphOvercast
8:35 AM41.0 °F37.4 °F87 %29.99 in6.0 miSouth (190°)8.1 mphRainLight Rain
8:55 AM41.0 °F39.2 °F93 %29.99 in1.8 miSouth (170°)3.5 mph0.02 inRainRain
9:15 AM41.0 °F39.2 °F93 %29.99 in3.0 miSouth (170°)5.8 mphRainLight Rain
9:35 AM41.0 °F39.2 °F93 %30.00 in6.0 miSouth (180°)4.6 mphMostly Cloudy
9:55 AM41.0 °F39.2 °F93 %30.00 in10.0 miSouth (180°)4.6 mphMostly Cloudy
10:15 AM41.0 °F39.2 °F93 %30.00 in10.0 miSouth (170°)4.6 mphOvercast
10:35 AM41.0 °F39.2 °F93 %30.00 in10.0 miSouth (190°)3.5 mphOvercast
10:55 AM41.0 °F39.2 °F93 %30.00 in10.0 miSouth (190°)6.9 mphOvercast
11:15 AM41.0 °F39.2 °F93 %30.00 in10.0 miSouth (190°)8.1 mphMostly Cloudy
11:35 AM41.0 °F39.2 °F93 %29.99 in8.0 miSouth (190°)6.9 mphMostly Cloudy
11:55 AM42.8 °F39.2 °F87 %29.99 in10.0 miSouth (180°)6.9 mphPartly Cloudy
12:15 PM44.6 °F39.2 °F81 %29.98 in9.0 miSouth (170°)4.6 mphRainLight Rain
12:55 PM42.8 °F37.4 °F81 %29.98 in10.0 miSouth (190°)8.1 mphMostly Cloudy
1:15 PM42.8 °F39.2 °F87 %29.97 in10.0 miSouth (170°)4.6 mphMostly Cloudy
1:35 PM42.8 °F39.2 °F87 %29.97 in5.0 miSouth (180°)5.8 mphRainLight Rain
1:55 PM41.0 °F39.2 °F93 %29.97 in6.0 miSouth (170°)4.6 mphRainLight Rain
2:15 PM42.8 °F39.2 °F87 %29.97 in9.0 miSouth (180°)6.9 mphRainLight Rain
2:35 PM42.8 °F39.2 °F87 %29.97 in9.0 miSouth (180°)4.6 mphClear
2:55 PM42.8 °F39.2 °F87 %29.97 in6.0 miSouth (180°)5.8 mphRainLight Rain
3:15 PM42.8 °F39.2 °F87 %29.97 in5.0 miSouth (170°)4.6 mphRainLight Rain
3:35 PM42.8 °F39.2 °F87 %29.97 in9.0 miSouth (170°)3.5 mphClear
4:15 PM42.8 °F39.2 °F87 %29.97 in10.0 miSouth (180°)4.6 mphOvercast
4:35 PM42.8 °F39.2 °F87 %29.97 in10.0 miCalmOvercast
4:55 PM42.8 °F39.2 °F87 %29.97 in10.0 miSouth (180°)3.5 mphOvercast
5:15 PM42.8 °F37.4 °F81 %29.97 in10.0 miCalmScattered Clouds
5:35 PM42.8 °F37.4 °F81 %29.98 in10.0 miSSW (200°)6.9 mphPartly Cloudy
5:55 PM41.0 °F37.4 °F87 %29.98 in10.0 miCalmClear
6:15 PM39.2 °F37.4 °F93 %29.98 in10.0 miCalmClear
6:35 PM39.2 °F37.4 °F93 %29.98 in10.0 miCalmClear
6:55 PM39.2 °F37.4 °F93 %29.98 in10.0 miCalmClear
7:15 PM37.4 °F37.4 °F100 %29.99 in10.0 miNorthClear
7:35 PM39.2 °F37.4 °F93 %29.99 in10.0 miCalmClear
7:55 PM39.2 °F37.4 °F93 %29.99 in10.0 miCalmClear
8:15 PM39.2 °F37.4 °F93 %30.00 in10.0 miCalmMostly Cloudy
8:35 PM41.0 °F37.4 °F87 %30.00 in10.0 miSouth (190°)4.6 mphOvercast
8:55 PM41.0 °F37.4 °F87 %30.00 in10.0 miCalmMostly Cloudy
9:15 PM41.0 °F37.4 °F87 %30.00 in10.0 miNorthScattered Clouds
9:35 PM41.0 °F37.4 °F87 %30.00 in10.0 miSouth (180°)5.8 mphScattered Clouds
9:55 PM41.0 °F37.4 °F87 %30.01 in10.0 miSouth (190°)6.9 mphScattered Clouds
10:15 PM41.0 °F37.4 °F87 %30.00 in10.0 miSSE (150°)3.5 mphMostly Cloudy
10:35 PM41.0 °F35.6 °F81 %30.00 in10.0 miNorthScattered Clouds
10:55 PM41.0 °F35.6 °F81 %30.00 in10.0 miESE (120°)4.6 mphClear
11:15 PM41.0 °F35.6 °F81 %29.99 in10.0 miCalmPartly Cloudy
11:35 PM41.0 °F35.6 °F81 %29.99 in10.0 miSouth (180°)6.9 mphScattered Clouds
11:55 PM41.0 °F35.6 °F81 %29.98 in10.0 miSouth (180°)3.5 mphMostly Cloudy
Hourly data recorded from CZBB, located miles away from Vancouver, British Columbia







STORIES FROM OUR PARTNERS